sat.trackr.live / text

‹ back to catalog

STARLINK-36720

NORAD 67655 · 2026-022H

PAYLOAD ACTIVE UNKNOWN

§ Identity

Operator
Country
US
Launch date
2026-02-02
Launch site
AFWTR
Launch vehicle
Mass (kg)
RCS (m²)

Purposes: comms

External: N2YO · Heavens-Above · Gunter

§ Orbital elements

Epoch: 2026-05-25T02:17:25.476864Z

Period
93.91 min
Inclination
97.2825°
Eccentricity
0.0001074
Mean motion
15.33445861 rev/d
Perigee alt
464.8 km
Apogee alt
466.3 km
Semi-major
6,843.7 km
B*
4.5422e-4
RAAN
178.3749°
Arg perigee
107.5277°
Mean anomaly
252.6083°
Rev number
1,728

§ Raw data

STARLINK-367201 67655U 26022H   26145.09543376  .00014618  00000+0  45422-3 0  99952 67655  97.2825 178.3749 0001074 107.5277 252.6083 15.33445861 17288

JSON: /api/v1/satellites/67655 · /tle

For live sub-satellite position, see the globe view (requires WebGL).

§ Visibility from observer

Set your observer location to see the next 7 days of passes ≥ 10°. The values pass through the URL so the page stays shareable.

No JS? Fill the form by hand. The geolocation button needs JavaScript.